Regional Weather Roundup
Issued by NWS

Home | Current Version | Previous Version | Text Only | Print | Product List | Glossary On
Versions: 1 2 3 4 5 6 7 8 9 10 11 12 13 14 15 16 17 18 19 20 21 22 23 24 25 26 27 28 29 30 31 32 33 34 35 36 37 38 39 40 41 42 43 44 45 46 47 48 49 50
000
ASUS42 KFFC 272303
RWRGA
WEATHER ROUNDUP FOR GEORGIA
NATIONAL WEATHER SERVICE PEACHTREE CITY GA
600 PM EST MON FEB 27 2017

NOTE: "FAIR" INDICATES FEW OR NO CLOUDS BELOW 12,000 FEET WITH NO
SIGNIFICANT WEATHER AND/OR OBSTRUCTIONS TO VISIBILITY.

* = USE WITH CAUTION. THE STATIONS MARKED WITH AN ASTERISK MAY NOT
REPORT WEATHER SUCH AS PRECIPITATION, FOG, OR THUNDER AND ARE NOT
QUALITY CONTROLLED BY NWS.

THE REMARK "TC" DENOTES TEMPERATURE READING IN DEGREES CELSIUS.

GAZ001>058-280000-
NORTH GEORGIA

CITY           SKY/WX    TMP DP  RH WIND       PRES   REMARKS
ATLANTA        MOCLDY    51  48  89 SE8       30.23F
ATHENS         MOCLDY    54  48  80 CALM      30.28R
CHAMBLEE       CLOUDY    52  45  77 CALM      30.25F
PEACHTREE CITY CLOUDY    50  48  93 SE7       30.23F
ROME           MOCLDY    55  43  63 SE5       30.23S
WEST ATLANTA   CLOUDY    53  45  74 NE3       30.25F
GAINESVILLE    PTCLDY    52  41  66 E6        30.29F
CARTERSVILLE   CLOUDY    54  44  69 VRB6      30.25R


CITY           SKY/WX    TMP DP  RH WIND       PRES   REMARKS
DALTON*        PTCLDY    54  45  71 S6        30.25R
LAWRENCEVILLE* PTCLDY    52  43  71 NE6       30.26F
MARIETTA       CLOUDY    52  45  76 E5        30.24F
KENNESAW*      MOCLDY    52  45  76 E7        30.28R
CANTON*        CLOUDY    52  36  54 CALM      30.28R
$$

GAZ059>098-102>109-280000-
CENTRAL GEORGIA

CITY           SKY/WX    TMP DP  RH WIND       PRES   REMARKS
AUGUSTA-BUSH   MOCLDY    69  51  52 NE6       30.27F
AUGUSTA-DANIEL PTCLDY    70  47  43 E3        30.29F
COLUMBUS       RAIN      51  50  96 E13       30.26F FOG
MACON          LGT RAIN  56  48  74 N10       30.30S
ROBINS AFB     CLOUDY    60  47  61 N8        30.30R


CITY           SKY/WX    TMP DP  RH WIND       PRES   REMARKS
LAGRANGE*      CLOUDY    55  55 100 SE7       30.19F
SYLVANIA*      MOCLDY   N/A N/A N/A SE7       30.28R
MILLEDGEVILLE* RAIN      54  54 100 CALM      30.31F
$$

GAZ099>101-110>166-280000-
SOUTH GEORGIA

CITY           SKY/WX    TMP DP  RH WIND       PRES   REMARKS
SAVANNAH       MOCLDY    69  56  62 E7        30.29R
VALDOSTA       PTCLDY    76  61  59 VRB6      30.21R
ALMA           CLOUDY    73  59  61 E3        30.22R
ST SIMONS      MOCLDY    71  62  73 E9        30.24S
FT STEWART     MOCLDY    70  59  68 E3        30.25R
ALBANY         LGT RAIN  64  59  83 N12G21    30.25R
HUNTER AFB     PTCLDY    68  62  80 E5        30.27R
MOODY AFB      PTCLDY    79  59  49 W7        30.20R
BRUNSWICK      CLOUDY    72  64  78 E7        30.26R


CITY           SKY/WX    TMP DP  RH WIND       PRES   REMARKS
BAINBRIDGE*    MOCLDY    72  66  83 SE6       30.20R
MOULTRIE*      CLOUDY    75  61  60 CALM      30.21S
VIDALIA*       CLOUDY    72  61  68 E7        30.24S
WAYCROSS*      CLOUDY    77  65  67 E7        30.22R
DOUGLAS*       CLOUDY    75  54  46 CALM      30.23R
$$




USA.gov is the U.S. government's official web portal to all federal, state and local government web resources and services.